Theta_e
340 342 342 342 342 337 339 342 345 345 344 344 348 349 348 347 348 347 345 346 346 345 344 344 343 344 343 343 343 343 339 334 330 333 334 339 342 342 345 346 348 347 346
341 340 339 340 342 342 339 340 342 345 344 345 345 349 349 349 347 347 347 348 345 344 345 343 344 348 344 344 344 342 340 339 336 333 336 339 341 345 346 347 350 351 349
341 340 339 338 338 341 343 341 341 344 345 346 347 346 349 350 349 348 348 346 346 346 346 345 345 344 343 343 343 344 343 344 340 338 340 342 344 345 345 346 346 346 349
342 341 339 338 338 339 340 344 341 342 344 347 349 348 350 350 350 350 349 347 346 347 348 348 348 347 346 345 345 345 344 343 344 342 340 340 342 345 343 342 344 344 344
341 342 341 341 339 339 339 341 345 343 343 346 348 350 349 350 351 349 350 349 347 346 346 348 349 349 347 345 348 346 344 343 342 341 340 340 342 340 340 342 340 342 342
341 342 343 343 342 338 338 339 341 343 343 342 345 348 349 351 340 338 347 348 348 347 346 345 347 347 345 340 339 340 345 344 341 341 342 341 343 341 340 339 338 335 340
343 343 343 344 343 343 339 337 338 340 341 342 344 345 347 350 335 334 339 349 348 347 346 346 346 351 345 349 341 336 335 335 339 347 344 344 344 345 340 338 338 337 338
344 344 345 344 344 345 344 339 337 339 339 338 341 345 346 347 334 331 335 348 348 348 348 348 347 347 346 347 347 346 347 346 342 340 342 347 348 349 343 346 343 341 342
342 343 345 346 343 344 344 344 343 340 339 339 338 339 344 347 330 328 332 346 348 347 348 349 349 348 339 332 344 344 345 345 341 332 333 333 332 331 335 339 341 337 340
330 333 338 346 349 345 345 345 347 346 344 344 341 341 337 344 328 326 331 349 347 348 350 347 334 344 331 326 341 344 343 345 344 343 340 335 331 336 331 337 341 339 339
327 330 332 336 343 351 348 347 347 348 348 347 345 344 344 345 346 322 323 349 348 347 347 347 346 327 323 320 323 347 344 345 341 340 341 342 343 345 347 341 341 343 341
323 325 328 332 339 347 351 349 349 348 347 347 347 346 346 345 331 324 321 326 340 350 348 348 347 323 319 318 319 324 324 326 339 335 335 338 340 342 346 348 350 346 348
319 321 324 329 332 340 349 350 348 348 348 347 347 346 347 349 347 323 320 320 324 345 353 344 330 320 316 318 317 321 320 331 334 332 335 337 341 345 344 344 346 347 346
315 319 323 324 324 337 350 351 350 349 348 348 347 347 347 350 350 352 338 329 323 330 337 344 337 331 327 331 328 325 328 331 333 335 338 339 338 338 339 342 342 345 345
311 315 321 324 324 330 349 350 351 353 348 350 349 349 347 347 349 341 342 347 344 337 338 344 348 340 343 341 337 338 335 330 330 333 333 334 335 336 339 343 345 346 346
309 313 316 320 324 330 344 349 315 317 316 314 316 338 350 330 319 314 313 313 315 314 333 346 346 347 347 345 345 344 341 338 338 337 336 338 339 339 341 343 346 348 350
306 309 313 316 323 327 332 349 347 333 308 309 310 312 313 329 309 311 309 308 306 311 347 345 346 347 346 347 346 346 346 346 346 344 343 342 342 343 341 345 347 350 348
305 307 311 319 321 325 330 334 351 349 346 347 316 313 307 307 307 308 304 310 320 320 345 348 346 347 347 346 346 346 346 345 343 343 343 344 344 346 347 347 346 346 344
305 311 316 317 322 325 330 333 339 344 346 347 333 314 310 302 301 305 304 345 343 341 337 343 347 348 347 346 346 345 345 345 343 344 345 348 346 346 345 343 343 324 328
308 313 313 314 321 322 325 329 337 344 344 345 341 340 321 321 326 328 324 335 340 336 334 334 329 329 328 331 336 342 341 341 340 337 335 334 336 341 342 340 339 337 339
307 309 311 311 313 313 315 320 325 338 333 326 323 323 313 336 339 333 320 315 316 317 316 315 313 312 313 313 317 323 327 327 329 330 331 331 332 331 333 331 331 333 340
304 306 306 306 307 307 307 310 313 317 316 314 312 309 303 316 314 315 313 313 310 310 310 307 306 306 306 307 308 310 312 315 316 317 321 325 328 331 333 335 333 332 337
301 302 302 301 302 303 304 304 305 306 305 306 307 307 305 304 304 304 304 304 304 303 306 306 304 303 303 303 301 299 301 302 305 308 312 316 321 326 327 328 329 330 331
297 298 298 298 298 297 298 298 300 299 300 299 298 298 298 298 297 297 297 298 298 296 296 295 295 295 296 294 294 295 293 293 300 306 313 317 318 316 320 324 324 326 328
295 295 294 294 295 295 295 294 296 295 296 297 297 297 295 295 294 294 294 294 294 294 293 292 292 292 292 292 292 291 288 288 294 294 307 308 308 310 312 313 315 316 316
294 293 293 293 293 293 294 294 294 294 293 293 294 294 294 294 296 295 294 294 293 292 292 291 291 291 291 290 289 287 285 287 291 289 301 302 302 302 304 304 303 304 304
Wind_Speed
16 15 14 12 10 9 9 8 7 6 6 6 7 7 7 7 6 6 6 5 6 5 4 4 5 4 3 2 1 1 2 2 2 4 3 2 3 4 6 4 5 6 5
18 16 15 13 11 11 10 9 8 8 6 8 6 6 6 7 7 7 7 6 6 6 6 5 6 3 4 3 2 3 2 3 3 4 3 2 3 3 4 5 6 4 4
16 17 14 14 13 13 12 10 9 8 7 6 7 8 8 9 8 8 8 7 7 7 6 6 7 5 5 3 4 4 3 2 3 3 3 2 3 2 4 3 4 6 4
14 15 17 16 15 15 13 10 10 10 9 7 7 9 9 9 10 9 8 7 7 7 7 6 7 6 7 6 4 5 4 3 2 3 3 3 3 3 2 3 6 2 6
14 13 14 14 15 13 13 13 11 10 11 10 9 7 7 8 8 8 8 8 8 7 7 7 7 7 9 8 4 5 4 3 3 4 4 3 3 2 2 2 3 5 5
13 15 12 12 12 15 14 13 13 11 11 10 12 12 10 8 11 13 10 8 8 8 9 7 7 8 9 11 12 11 8 6 5 3 3 5 7 3 2 3 3 3 7
16 15 15 15 16 15 13 13 14 14 12 13 13 12 14 12 14 16 16 10 9 9 9 7 7 7 9 7 9 12 12 13 13 8 7 7 6 4 3 3 4 3 4
11 13 13 16 16 12 13 15 14 13 14 13 14 14 13 13 16 16 16 13 9 11 10 9 9 9 8 8 7 7 8 7 8 7 10 12 9 9 6 8 6 4 3
5 2 8 11 14 13 14 16 13 13 12 14 14 14 15 15 17 17 14 11 12 12 10 10 10 10 11 13 8 9 10 11 8 12 13 13 13 12 9 1 6 3 6
7 6 8 7 13 16 17 17 13 11 14 10 13 14 16 16 14 19 16 10 12 10 10 9 14 15 12 12 10 9 10 13 7 6 6 7 9 9 11 8 4 5 4
11 9 9 6 8 13 14 11 12 12 10 13 14 13 14 14 16 18 19 13 12 10 11 10 9 15 16 14 16 11 14 11 9 6 5 4 4 6 6 6 8 7 5
9 10 11 6 6 9 14 12 13 12 13 14 13 12 11 12 14 16 20 22 16 13 11 10 11 14 16 17 11 18 17 11 5 4 4 8 8 7 7 6 7 7 8
11 14 12 10 8 9 13 14 11 13 13 13 12 11 10 9 10 17 19 21 21 13 12 12 13 14 15 12 16 17 12 6 7 6 9 9 8 8 4 3 5 6 6
10 10 15 10 9 11 7 7 9 10 12 11 11 11 9 9 10 9 9 9 16 13 14 10 10 9 9 9 6 9 7 7 8 9 9 8 3 3 4 4 3 2 2
8 8 12 10 10 11 8 8 11 12 13 13 13 12 12 12 12 14 13 11 11 13 9 8 10 5 8 8 7 7 6 5 7 7 7 7 6 4 5 4 4 4 4
7 8 6 10 9 9 9 9 4 7 14 16 14 14 11 13 12 15 16 15 16 13 6 10 10 11 11 10 10 9 8 9 9 7 6 6 7 6 6 4 5 5 6
6 9 5 9 7 7 9 9 9 4 4 14 16 16 14 11 14 16 17 16 11 11 9 9 10 11 11 10 9 9 9 8 7 7 8 8 7 7 6 6 4 5 4
6 16 6 7 7 8 7 8 8 9 10 11 9 13 14 14 15 17 11 12 3 5 9 10 9 10 10 10 8 8 6 5 6 7 7 6 6 6 6 6 5 4 4
5 8 6 8 8 8 7 8 8 6 7 8 3 2 4 4 5 6 12 9 10 9 9 9 9 9 8 6 6 7 7 6 5 5 5 5 3 3 3 2 3 4 3
6 12 7 6 6 5 5 7 6 7 7 8 7 5 4 5 5 6 6 7 4 2 3 3 3 3 3 1 0 2 3 4 4 4 5 6 6 5 3 3 4 1 4
5 6 8 3 5 4 5 6 7 2 2 3 3 2 7 5 4 4 5 5 5 6 5 5 5 6 5 5 6 4 2 3 3 3 3 3 3 4 7 10 7 11 5
4 5 3 4 4 5 6 6 6 5 5 5 5 9 12 8 8 6 6 5 7 7 6 7 6 6 6 6 6 6 6 6 5 4 3 3 5 5 4 6 9 11 10
3 4 5 5 5 6 7 6 6 6 6 7 7 6 8 8 8 9 12 6 8 11 7 7 8 7 7 7 6 6 6 5 5 5 4 3 3 3 3 1 2 1 2
4 5 7 5 6 8 8 7 6 9 8 7 8 8 8 9 9 12 11 9 8 11 9 9 8 12 7 6 6 6 6 6 5 5 7 4 4 4 4 6 5 3 2
5 5 8 8 8 8 6 7 6 7 7 8 8 9 8 9 10 10 9 10 10 12 12 11 10 11 11 12 10 11 10 17 13 11 7 8 8 9 6 6 5 5 4
7 9 9 8 7 7 6 5 7 6 8 9 9 11 8 10 8 8 11 8 10 11 11 10 14 12 12 13 14 17 15 18 14 12 7 8 8 7 6 7 9 5 5
Wind_Direction
192 194 194 193 189 167 177 190 201 207 206 209 195 195 193 195 196 193 212 215 218 228 247 232 246 204 230 245 183 157 157 155 195 297 258 281 296 319 320 297 282 291 292
189 189 196 190 189 185 188 190 187 203 202 205 203 202 199 202 190 193 204 211 217 224 238 240 256 251 256 257 246 226 202 194 168 258 260 287 253 291 279 304 311 292 309
191 187 191 195 193 203 197 186 186 194 207 203 203 210 210 210 198 200 203 208 219 225 224 225 242 225 256 239 238 250 242 206 209 222 282 281 276 301 319 298 300 318 326
193 200 188 194 197 204 205 185 185 188 199 199 204 212 213 212 209 200 201 207 216 230 235 231 239 228 234 247 237 244 252 269 257 250 272 272 254 289 281 293 317 317 314
193 199 207 199 198 199 207 197 191 189 202 200 200 208 216 212 212 198 195 211 216 225 231 236 239 232 226 227 222 248 236 251 268 273 278 273 283 301 282 272 270 300 292
197 198 192 202 204 200 203 207 192 193 199 193 208 208 204 215 215 202 198 206 212 222 233 235 237 240 242 238 240 238 230 227 241 228 256 266 278 260 247 264 283 312 318
202 199 198 198 202 207 200 204 206 203 198 207 213 208 215 213 208 209 208 220 220 221 225 228 235 235 224 236 240 239 247 241 233 242 252 247 269 255 248 280 260 237 255
194 203 200 205 209 203 196 202 208 203 207 211 217 216 217 220 202 203 205 221 225 230 225 222 226 235 221 217 234 250 253 245 235 221 225 254 249 268 210 268 277 274 277
12 256 220 218 206 203 208 208 206 206 207 212 219 219 215 224 201 199 192 209 226 233 231 230 226 237 226 211 220 241 259 261 242 231 232 239 249 251 255 317 271 263 293
352 330 306 281 207 202 209 211 205 200 212 212 218 220 219 225 203 199 191 204 220 230 232 232 226 234 227 207 214 230 252 260 257 260 255 252 246 255 240 211 243 244 260
332 315 295 289 287 224 219 206 199 202 199 213 220 218 218 214 220 198 193 206 220 225 231 234 233 222 233 227 213 230 238 256 254 241 253 255 256 251 243 210 205 208 216
319 303 289 278 249 264 220 210 200 197 205 214 214 220 220 218 215 204 198 206 212 221 226 228 236 214 221 229 214 233 245 252 255 247 253 267 268 261 258 238 218 213 220
335 320 316 301 292 268 240 210 202 199 203 212 212 214 218 212 218 209 201 206 220 222 229 228 222 216 223 233 226 236 228 229 239 241 254 253 243 256 259 254 241 235 223
323 327 312 310 315 284 240 196 205 207 204 210 213 217 212 209 212 208 205 210 227 226 240 240 236 228 217 231 227 228 219 211 210 231 243 248 249 225 235 211 238 243 226
329 327 316 311 319 308 244 209 204 217 207 207 211 209 202 209 211 198 194 196 207 214 208 231 241 224 243 241 239 234 214 198 213 224 227 230 236 225 235 204 214 210 218
325 309 317 308 321 320 298 222 171 242 230 226 222 211 215 221 198 196 197 198 197 172 189 222 227 235 237 240 239 239 222 215 221 220 226 228 239 238 243 214 214 221 225
307 293 307 308 313 308 310 288 258 208 356 237 223 214 211 203 194 195 200 207 210 143 214 211 225 227 228 232 229 229 234 221 215 222 227 230 229 231 219 226 216 220 224
332 282 296 304 296 293 293 296 250 217 223 232 229 230 223 212 194 200 179 118 128 229 220 223 215 219 221 223 223 222 224 209 202 216 217 219 220 224 222 228 231 218 233
270 276 298 301 286 271 271 274 278 240 207 213 184 233 241 233 212 193 179 210 209 211 210 219 222 224 221 213 210 210 210 209 194 193 198 190 182 192 212 243 246 230 273
299 295 299 288 287 302 291 293 270 245 224 208 205 205 126 135 175 187 199 221 187 152 148 128 51 47 62 87 104 199 155 150 137 136 143 138 145 129 132 144 147 115 286
299 287 304 319 316 333 317 330 309 309 140 79 46 346 171 191 211 158 112 71 69 66 59 64 73 72 50 19 12 28 83 126 159 193 232 225 196 195 196 190 224 268 217
315 284 342 358 345 355 353 347 347 24 33 73 71 43 55 79 80 71 54 60 79 68 58 63 50 38 44 45 23 19 10 355 1 349 349 307 280 262 215 237 243 237 213
334 296 41 15 5 8 34 15 22 31 40 45 53 60 66 76 74 78 80 26 55 65 46 59 78 57 29 29 43 39 35 5 338 324 333 353 344 341 355 355 52 64 105
2 14 43 30 24 41 38 20 25 47 57 61 59 54 63 73 80 80 77 71 71 72 61 51 47 69 69 45 36 49 33 9 340 328 324 338 31 30 10 0 1 42 311
35 36 45 35 30 33 28 48 35 47 61 65 70 73 67 65 75 78 83 83 80 76 69 61 41 39 44 53 55 50 43 31 34 5 22 23 35 14 36 60 22 7 3
38 49 58 46 40 36 26 17 66 57 66 66 67 71 65 72 61 75 74 53 78 77 92 68 75 35 30 33 42 37 32 31 27 7 9 52 40 37 53 46 44 43 16